TimeEDT,TemperatureF,Dew PointF,Humidity,Sea Level PressureIn,VisibilityMPH,Wind Direction,Wind SpeedMPH,Gust SpeedMPH,PrecipitationIn,Events,Conditions,WindDirDegrees,DateUTC
12:15 AM,55.4,28.4,36,30.08,10.0,NE,9.2,-,N/A,,Clear,40,2014-04-01 04:15:00
12:35 AM,55.4,28.4,36,30.08,10.0,NE,9.2,-,N/A,,Clear,40,2014-04-01 04:35:00
12:55 AM,55.4,26.6,33,30.08,10.0,NE,6.9,-,N/A,,Clear,40,2014-04-01 04:55:00
1:15 AM,55.4,26.6,33,30.09,10.0,NNE,5.8,-,N/A,,Clear,30,2014-04-01 05:15:00
1:35 AM,55.4,26.6,33,30.09,10.0,North,3.5,-,N/A,,Clear,10,2014-04-01 05:35:00
2:15 AM,46.4,30.2,53,30.09,10.0,Calm,Calm,-,N/A,,Clear,0,2014-04-01 06:15:00
2:35 AM,44.6,30.2,57,30.09,10.0,Calm,Calm,-,N/A,,Clear,0,2014-04-01 06:35:00
2:55 AM,41.0,30.2,65,30.09,10.0,Calm,Calm,-,N/A,,Clear,0,2014-04-01 06:55:00
3:15 AM,39.2,32.0,75,30.08,10.0,Calm,Calm,-,N/A,,Clear,0,2014-04-01 07:15:00
3:35 AM,39.2,32.0,75,30.08,10.0,Calm,Calm,-,N/A,,Clear,0,2014-04-01 07:35:00
3:55 AM,37.4,32.0,81,30.08,10.0,Calm,Calm,-,N/A,,Clear,0,2014-04-01 07:55:00
4:15 AM,39.2,30.2,70,30.08,10.0,Calm,Calm,-,N/A,,Clear,0,2014-04-01 08:15:00
4:35 AM,37.4,30.2,75,30.09,10.0,Calm,Calm,-,N/A,,Clear,0,2014-04-01 08:35:00
4:55 AM,37.4,30.2,75,30.10,10.0,Calm,Calm,-,N/A,,Clear,0,2014-04-01 08:55:00
5:15 AM,35.6,30.2,81,30.11,10.0,Calm,Calm,-,N/A,,Clear,0,2014-04-01 09:15:00
5:35 AM,37.4,30.2,75,30.11,10.0,Calm,Calm,-,N/A,,Clear,0,2014-04-01 09:35:00
5:55 AM,37.4,30.2,75,30.11,10.0,Calm,Calm,-,N/A,,Clear,0,2014-04-01 09:55:00
6:15 AM,35.6,30.2,81,30.12,10.0,Calm,Calm,-,N/A,,Clear,0,2014-04-01 10:15:00
6:35 AM,35.6,30.2,81,30.13,10.0,Calm,Calm,-,N/A,,Clear,0,2014-04-01 10:35:00
6:55 AM,35.6,30.2,81,30.13,10.0,Calm,Calm,-,N/A,,Clear,0,2014-04-01 10:55:00
7:15 AM,35.6,28.4,75,30.14,10.0,Calm,Calm,-,N/A,,Clear,0,2014-04-01 11:15:00
7:35 AM,37.4,28.4,70,30.15,10.0,Calm,Calm,-,N/A,,Clear,0,2014-04-01 11:35:00
7:55 AM,39.2,33.8,81,30.16,10.0,Calm,Calm,-,N/A,,Clear,0,2014-04-01 11:55:00
8:15 AM,44.6,35.6,71,30.16,10.0,Calm,Calm,-,N/A,,Clear,0,2014-04-01 12:15:00
8:35 AM,48.2,33.8,58,30.16,10.0,Calm,Calm,-,N/A,,Clear,0,2014-04-01 12:35:00
8:55 AM,50.0,32.0,50,30.17,10.0,Calm,Calm,-,N/A,,Clear,0,2014-04-01 12:55:00
9:15 AM,50.0,33.8,54,30.17,10.0,NNW,3.5,-,N/A,,Clear,340,2014-04-01 13:15:00
9:35 AM,51.8,32.0,47,30.16,10.0,Calm,Calm,-,N/A,,Clear,0,2014-04-01 13:35:00
9:55 AM,53.6,30.2,41,30.17,10.0,SSE,3.5,-,N/A,,Clear,150,2014-04-01 13:55:00
10:15 AM,55.4,30.2,38,30.16,10.0,SSE,3.5,-,N/A,,Clear,150,2014-04-01 14:15:00
10:35 AM,55.4,30.2,38,30.16,10.0,Calm,Calm,-,N/A,,Clear,0,2014-04-01 14:35:00
10:55 AM,55.4,30.2,38,30.16,10.0,Calm,Calm,-,N/A,,Clear,0,2014-04-01 14:55:00
11:15 AM,55.4,30.2,38,30.15,10.0,SW,4.6,-,N/A,,Clear,230,2014-04-01 15:15:00
11:35 AM,55.4,30.2,38,30.15,10.0,Calm,Calm,-,N/A,,Clear,0,2014-04-01 15:35:00
11:55 AM,57.2,30.2,36,30.13,10.0,SSW,4.6,-,N/A,,Clear,210,2014-04-01 15:55:00
12:15 PM,57.2,30.2,36,30.12,10.0,South,5.8,-,N/A,,Clear,180,2014-04-01 16:15:00
12:35 PM,57.2,32.0,38,30.10,10.0,SSE,3.5,-,N/A,,Scattered Clouds,160,2014-04-01 16:35:00
12:55 PM,59.0,30.2,34,30.09,10.0,SW,3.5,-,N/A,,Clear,220,2014-04-01 16:55:00
1:15 PM,62.6,32.0,32,30.08,10.0,SSW,4.6,-,N/A,,Clear,210,2014-04-01 17:15:00
1:35 PM,64.4,33.8,32,30.07,10.0,SE,6.9,-,N/A,,Clear,130,2014-04-01 17:35:00
1:55 PM,66.2,33.8,30,30.06,10.0,Calm,Calm,-,N/A,,Clear,0,2014-04-01 17:55:00
2:15 PM,66.2,32.0,28,30.05,10.0,SSW,6.9,-,N/A,,Clear,210,2014-04-01 18:15:00
2:35 PM,66.2,32.0,28,30.03,10.0,SSE,6.9,-,N/A,,Scattered Clouds,160,2014-04-01 18:35:00
2:55 PM,66.2,33.8,30,30.01,10.0,Calm,Calm,-,N/A,,Clear,0,2014-04-01 18:55:00
3:15 PM,69.8,33.8,27,30.00,10.0,SW,4.6,-,N/A,,Clear,230,2014-04-01 19:15:00
3:35 PM,69.8,33.8,27,29.99,10.0,SW,9.2,-,N/A,,Clear,220,2014-04-01 19:35:00
3:55 PM,71.6,35.6,27,29.99,10.0,SSW,4.6,-,N/A,,Clear,200,2014-04-01 19:55:00
4:15 PM,71.6,35.6,27,29.98,10.0,SSW,9.2,-,N/A,,Clear,210,2014-04-01 20:15:00
4:35 PM,71.6,35.6,27,29.98,10.0,SSW,5.8,-,N/A,,Clear,200,2014-04-01 20:35:00
4:55 PM,71.6,35.6,27,29.97,-9999.0,North,-9999.0,-,N/A,,Unknown,0,2014-04-01 20:55:00
5:15 PM,71.6,35.6,27,29.97,10.0,SSW,4.6,-,N/A,,Unknown,210,2014-04-01 21:15:00
5:35 PM,71.6,37.4,29,29.97,10.0,SSW,3.5,-,N/A,,Clear,210,2014-04-01 21:35:00
5:55 PM,71.6,35.6,27,29.96,10.0,South,5.8,-,N/A,,Clear,180,2014-04-01 21:55:00
6:15 PM,71.6,37.4,29,29.97,10.0,South,4.6,-,N/A,,Clear,190,2014-04-01 22:15:00
6:35 PM,71.6,35.6,27,29.97,10.0,South,4.6,-,N/A,,Clear,190,2014-04-01 22:35:00
6:55 PM,69.8,37.4,31,29.97,10.0,South,4.6,-,N/A,,Clear,170,2014-04-01 22:55:00
7:15 PM,69.8,37.4,31,29.98,10.0,Calm,Calm,-,N/A,,Clear,0,2014-04-01 23:15:00
7:35 PM,64.4,37.4,37,29.98,10.0,Calm,Calm,-,N/A,,Clear,0,2014-04-01 23:35:00
7:55 PM,59.0,41.0,51,29.99,10.0,Calm,Calm,-,N/A,,Clear,0,2014-04-01 23:55:00
8:15 PM,60.8,39.2,45,29.99,10.0,Calm,Calm,-,N/A,,Clear,0,2014-04-02 00:15:00
8:35 PM,55.4,39.2,54,29.99,10.0,SSE,3.5,-,N/A,,Clear,160,2014-04-02 00:35:00
8:55 PM,57.2,37.4,48,30.00,10.0,SSE,3.5,-,N/A,,Clear,150,2014-04-02 00:55:00
9:15 PM,57.2,37.4,48,30.00,10.0,SSE,4.6,-,N/A,,Clear,150,2014-04-02 01:15:00
9:35 PM,57.2,37.4,48,30.00,10.0,SE,3.5,-,N/A,,Clear,140,2014-04-02 01:35:00
9:55 PM,57.2,37.4,48,30.00,10.0,SE,4.6,-,N/A,,Clear,140,2014-04-02 01:55:00
10:15 PM,55.4,37.4,51,30.00,10.0,SE,3.5,-,N/A,,Clear,130,2014-04-02 02:15:00
10:35 PM,59.0,37.4,45,30.00,10.0,SSE,4.6,-,N/A,,Clear,150,2014-04-02 02:35:00
10:55 PM,60.8,37.4,42,30.00,10.0,SSE,4.6,-,N/A,,Clear,150,2014-04-02 02:55:00
11:15 PM,59.0,37.4,45,30.00,10.0,SSE,4.6,-,N/A,,Clear,150,2014-04-02 03:15:00
11:35 PM,57.2,37.4,48,30.00,10.0,SSE,4.6,-,N/A,,Clear,160,2014-04-02 03:35:00
11:55 PM,51.8,39.2,62,30.00,10.0,South,3.5,-,N/A,,Clear,170,2014-04-02 03:55:00